This is the latest recevied weather packets stored in our database for station/object AC1IX. If no packets are shown the sender has not sent any weather packets the latest 10 day(s).
| Time | Temp. | Humidity | Pressure | Rain* | Wind** | Luminosity | Snow |
|---|---|---|---|---|---|---|---|
| 1777470756 | 17.22° C | 54% | 1015.2 hPa | 0 mm | - | 708 W/m² | - |
| 1777470453 | 16.67° C | 54% | 1015.1 hPa | 0 mm | - | 704 W/m² | - |
| 1777470150 | 16.11° C | 56% | 1015.3 hPa | 0 mm | - | 234 W/m² | - |
| 1777469846 | 15.56° C | 58% | 1015.6 hPa | 0 mm | - | 687 W/m² | - |
| 1777469542 | 16.11° C | 57% | 1015.6 hPa | 0 mm | - | 668 W/m² | - |
| 1777469242 | 16.11° C | 56% | 1015.6 hPa | 0 mm | - | 633 W/m² | - |
| 1777468937 | 15° C | 58% | 1015.4 hPa | 0 mm | - | 626 W/m² | - |
| 1777468634 | 14.44° C | 60% | 1015.5 hPa | 0 mm | - | 605 W/m² | - |
| 1777468330 | 14.44° C | 60% | 1016 hPa | 0 mm | - | 455 W/m² | - |
| 1777468026 | 13.89° C | 60% | 1016.4 hPa | 0 mm | - | 573 W/m² | - |
| 1777467722 | 13.33° C | 61% | 1016.4 hPa | 0 mm | - | 368 W/m² | - |
| 1777467418 | 12.78° C | 62% | 1016.5 hPa | 0 mm | - | 299 W/m² | - |
| 1777467113 | 12.22° C | 62% | 1016.3 hPa | 0 mm | - | 372 W/m² | - |
| 1777466810 | 12.22° C | 64% | 1016.2 hPa | 0 mm | - | 192 W/m² | - |
| 1777466509 | 12.22° C | 63% | 1016.3 hPa | 0 mm | - | 131 W/m² | - |
| 1777466204 | 11.67° C | 63% | 1016.4 hPa | 0 mm | - | 136 W/m² | - |
| 1777465901 | 11.67° C | 63% | 1016.6 hPa | 0 mm | - | 122 W/m² | - |
| 1777465598 | 11.67° C | 64% | 1016.7 hPa | 0 mm | - | 124 W/m² | - |
| 1777465293 | 11.67° C | 62% | 1016.6 hPa | 0 mm | - | 142 W/m² | - |
| 1777464987 | 11.67° C | 62% | 1016.5 hPa | 0 mm | - | 141 W/m² | - |
| 1777464682 | 11.67° C | 63% | 1016.5 hPa | 0 mm | - | 122 W/m² | - |
| 1777464379 | 11.67° C | 63% | 1016.6 hPa | 0 mm | - | 138 W/m² | - |
| 1777464074 | 11.67° C | 64% | 1016.8 hPa | 0 mm | - | 126 W/m² | - |
| 1777463769 | 11.11° C | 64% | 1016.8 hPa | 0 mm | - | 108 W/m² | - |
| 1777463464 | 11.11° C | 64% | 1016.9 hPa | 0 mm | - | 106 W/m² | - |
* Rain latest hour (hover to see other rain measurements)
** Current wind speed in m/s (hover to see current wind gust speed)